Gary, IN

4:09 PM CDT on April 30, 2017 (GMT -0500)
Gary / Chicago

Weather History for KGYY - September, 2014

Change the Weather History Date:

Sunday, September 14, 2014

  Actual Average Record
Temperature  
Mean Temperature 54 °F -  
Max Temperature 67 °F 78 °F 95 °F (1956)
Min Temperature 43 °F 54 °F 39 °F (1975)
Degree Days  
Heating Degree Days 10    
Growing Degree Days 4 (Base 50)    
Moisture  
Dew Point 45 °F    
Average Humidity 85    
Maximum Humidity 97    
Minimum Humidity 40    
Precipitation  
Precipitation 0.00 in - - ()
Sea Level Pressure  
Sea Level Pressure 30.28 in    
Wind  
Wind Speed 1 mph (SSW)    
Max Wind Speed 9 mph    
Max Gust Speed -    
Visibility 12 miles    
Events      
Averages and records for this station are not official NWS values.
T = Trace of Precipitation, MM = Missing Value Source: NWS Daily Summary

Daily Weather History Graph

Daily Weather History Graph

Search for Another Location

Airport or City:

Trip Planner

Search our weather history database for the weather conditions in past years. The results will help you decide how hot, cold, wet, or windy it might be!

Date:

Astronomy

Sep. 14, 2014 Rise Set
Actual Time 6:28 AM CDT 7:00 PM CDT
Civil Twilight 6:00 AM CDT 7:28 PM CDT
Nautical Twilight 5:28 AM CDT 8:01 PM CDT
Astronomical Twilight 4:54 AM CDT 8:35 PM CDT
Moon 10:48 PM CDT (9/14) 12:39 PM CDT (9/14)
Length of Visible Light 13h 27m
Length of Day
12h 31m
Waning Gibbous, 64% of the Moon is Illuminated
Sep 14
Waning Gibbous
Sep 15
Last Quarter
Sep 24
New
Oct 1
First Quarter
Oct 8
Full

Hourly Weather History & Observations

Time (CDT) Temp. Dew Point Humidity Pressure Visibility Wind Dir Wind Speed Gust Speed Precip Events Conditions
12:15 AM 44.1 °F 43.0 °F 96% 30.34 in 2.0 mi Calm Calm - N/A   Clear
12:35 AM 43.3 °F 42.3 °F 96% 30.34 in 7.0 mi Calm Calm - N/A   Clear
12:55 AM 43.7 °F 42.8 °F 97% 30.35 in 7.0 mi Calm Calm - N/A   Scattered Clouds
1:15 AM 45.0 °F 44.1 °F 97% 30.35 in 7.0 mi Calm Calm - N/A   Overcast
1:35 AM 45.1 °F 44.2 °F 97% 30.34 in 7.0 mi Calm Calm - N/A   Overcast
1:55 AM 45.1 °F 44.2 °F 97% 30.34 in 7.0 mi Calm Calm - N/A   Overcast
2:15 AM 44.6 °F 43.7 °F 97% 30.34 in 7.0 mi Calm Calm - N/A   Mostly Cloudy
2:35 AM 45.3 °F 44.4 °F 97% 30.34 in 4.0 mi Calm Calm - N/A   Mostly Cloudy
2:55 AM 45.7 °F 44.8 °F 97% 30.34 in 7.0 mi Calm Calm - N/A   Mostly Cloudy
3:15 AM 45.9 °F 45.0 °F 97% 30.33 in 7.0 mi Calm Calm - N/A   Mostly Cloudy
3:35 AM 45.7 °F 44.8 °F 97% 30.34 in 7.0 mi Calm Calm - N/A   Mostly Cloudy
3:55 AM 47.1 °F 46.2 °F 97% 30.33 in 10.0 mi Calm Calm - N/A   Overcast
4:15 AM 47.7 °F 46.8 °F 97% 30.33 in 10.0 mi Calm Calm - N/A   Overcast
5:45 AM 46.4 °F 44.6 °F 93% 30.33 in 10.0 mi Calm Calm - N/A   Mostly Cloudy
6:45 AM 48.2 °F 46.4 °F 93% 30.33 in 20.0 mi Calm Calm - N/A   Mostly Cloudy
7:45 AM 50.0 °F 48.2 °F 94% 30.33 in 20.0 mi Calm Calm - N/A   Mostly Cloudy
8:45 AM 53.6 °F 48.2 °F 82% 30.33 in 20.0 mi Calm Calm - N/A   Mostly Cloudy
9:45 AM 57.2 °F 44.6 °F 63% 30.33 in 20.0 mi South 6.9 mph - N/A   Scattered Clouds
10:45 AM 59.0 °F 41.0 °F 51% 30.32 in 20.0 mi SSW 5.8 mph - N/A   Scattered Clouds
11:45 AM 60.8 °F 41.0 °F 48% 30.30 in 20.0 mi South 8.1 mph - N/A   Scattered Clouds
12:45 PM 62.6 °F 41.0 °F 45% 30.28 in 15.0 mi SSW 8.1 mph - N/A   Partly Cloudy
1:45 PM 64.4 °F 41.0 °F 42% 30.26 in 15.0 mi South 8.1 mph - N/A   Scattered Clouds
2:45 PM 66.2 °F 41.0 °F 40% 30.23 in 15.0 mi North - - N/A   Partly Cloudy
3:45 PM 50.0 °F 41.0 °F 71% 30.21 in 15.0 mi SW 9.2 mph - N/A   Clear
4:45 PM 66.2 °F 42.8 °F 43% 30.20 in 15.0 mi SSW 6.9 mph - N/A   Partly Cloudy
7:45 PM 53.6 °F 50.0 °F 88% 30.19 in 15.0 mi South 6.9 mph - N/A   Scattered Clouds
8:45 PM 50.0 °F 48.2 °F 94% 30.19 in 15.0 mi Variable 4.6 mph - N/A   Scattered Clouds
9:15 PM 50.9 °F 49.1 °F 94% 30.19 in 10.0 mi Calm Calm - N/A   Clear
9:35 PM 50.2 °F 48.4 °F 94% 30.19 in 10.0 mi Calm Calm - N/A   Clear
9:55 PM 49.6 °F 47.8 °F 94% 30.19 in 10.0 mi Calm Calm - N/A   Clear
10:15 PM 49.3 °F 47.7 °F 94% 30.19 in 10.0 mi Calm Calm - N/A   Clear
10:35 PM 49.3 °F 47.8 °F 95% 30.19 in 10.0 mi Calm Calm - N/A   Clear
10:55 PM 49.1 °F 47.5 °F 94% 30.19 in 10.0 mi Calm Calm - N/A   Clear
11:15 PM 48.4 °F 46.9 °F 95% 30.19 in 10.0 mi Calm Calm - N/A   Clear
11:35 PM 47.8 °F 46.4 °F 95% 30.19 in 10.0 mi Calm Calm - N/A   Clear
11:55 PM 47.7 °F 46.4 °F 95% 30.19 in 10.0 mi Calm Calm - N/A   Clear